www.pogodaiklimat.ru

Погода и климат >> Архив погоды >> Сенегал >> Кедугу


ПОГОДА в Кедугу

  • Прогноз погоды в Кедугу
  • Монитор погоды в Кедугу

АРХИВ ПОГОДЫ в Кедугу

Время (UTC), дата Ветер
(напр.,м/с)
 
Видим.   Явления Облачность Т
(С)
Тd
(С)
f
(%)
Тe
(С)
Тes
(С)
Комфортность P
(гПа)
Po
(гПа)
Тmin
(С)
Tmax
(С)
R
(мм)
R24
(мм)
S
(см)
00 9.07 З 3 10 км зарница 4/1 900 м
[Cb calv Ac trans]
+27.0 +24.0 84 +37 +37 очень
душно
1013.3 994.5
06 9.07 З 3 10 км 8/0
[Ac trans Ci sp]
+25.5 +22.6 84 +34 +34 очень
душно
1012.5 993.8 +24.8
09 9.07 Ю 3 10 км 8/5 450 м
[Cu med, cong Ci sp]
+28.0 +22.5 72 +37 +39 очень
душно
1014.0 995.2
12 9.07 ЮЗ 3 10 км 8/6 450 м
[Cu med, cong Ci sp]
+30.6 +22.2 61 +40 +46 очень
душно
1013.9 925.2
15 9.07 ЮЗ 4 10 км 8/5 450 м
[Cu med, cong Ci sp]
+32.6 +21.9 53 +41 +46 опасность
перегрева
1011.4 992.7
18 9.07 З 4 10 км 9/5 450 м
[Cu med, cong Ci sp]
+32.4 +21.7 53 +41 +41 опасность
перегрева
1010.5 991.9 +33.2
21 9.07 штиль 0 10 км гроза без осадков 9/3 900 м
[Cb cap Ac As]
+29.5 +24.6 75 +42 +42 опасность
перегрева
1011.9 993.2
03 10.07 Ю 2 10 км 8/0
[Ci sp]
+25.5 +22.1 81 +33 +33 очень
душно
1010.8 992.2
06 10.07 ЮЗ 3 10 км 8/0
[Ci sp]
+24.0 +21.0 83 +30 +30 очень
душно
1011.2 992.5 +23.5
09 10.07 З 4 10 км 6/3 450 м
[Cu med, cong Ac trans Ci sp]
+27.0 +21.9 74 +35 +38 очень
душно
1012.6 993.8
12 10.07 СЗ 3 10 км 8/5 450 м
[Cu med, cong Ci sp]
+30.0 +21.9 62 +39 +46 очень
душно
1012.9 994.1
15 10.07 З 3 10 км 6/4 450 м
[Cu med, cong Ci sp]
+32.5 +21.6 53 +41 +48 опасность
перегрева
1011.0 992.3
18 10.07 З 3 10 км 6/5 450 м
[Cu med, cong Ci sp]
+32.4 +21.7 53 +41 +41 опасность
перегрева
1009.4 990.7 +32.8
21 10.07 З 2 10 км зарница 8/1 900 м
[Cb calv Ci sp]
+29.0 +23.3 71 +39 +39 очень
душно
1010.6 999.0
00 11.07 штиль 0 10 км зарница 8/1 900 м
[Cb calv Ac trans Ci sp]
+27.5 +23.2 77 +37 +37 очень
душно
1012.2 993.5
03 11.07 ЮЗ 2 10 км 8/0
[Ac trans Ci sp]
+25.0 +22.8 88 +33 +33 очень
душно
1012.0 995.3
06 11.07 З 5 10 км 9/0
[Ac trans Ci sp]
+26.0 +23.3 85 +35 +35 очень
душно
1010.8 992.2 +24.8
09 11.07 ЮЗ 4 10 км 8/5 450 м
[Cu med, cong Ci sp]
+27.2 +22.9 77 +36 +38 очень
душно
1012.4 993.7
12 11.07 ЮЗ 3 10 км 8/6 450 м
[Cu med, cong Ci sp]
+31.0 +22.0 59 +40 +46 очень
душно
1012.6 993.9
15 11.07 З 3 10 км гроза без осадков 9/4 450 м
[Cb cap As op]
+31.6 +22.4 58 +41 +43 опасность
перегрева
1010.4 991.7
18 11.07 Ю 2 10 км осадки на расстоянии {гроза} 8/4 450 м
[Cb cap Ac As]
+32.7 +22.2 54 +42 +42 опасность
перегрева
1009.6 991.0 +33.0
21 11.07 З 2 10 км 9/0
[Ac As]
+29.5 +23.0 68 +39 +39 очень
душно
1011.1 992.3
00 12.07 З 4 10 км гроза без осадков 8/3 900 м
[Cb cap Ac As]
+26.5 +21.3 73 +34 +34 очень
душно
1011.9 993.2
06 12.07 штиль 0 10 км в посл. час дождь {гроза} 8/5 300 м
[St Ac As]
+24.5 +23.0 91 +32 +32 очень
душно
1010.9 992.2 +23.5 6
09 12.07 штиль 0 10 км 6/5 450 м
[Cu med, cong Ci sp]
+27.2 +22.9 77 +36 +41 очень
душно
1013.0 994.2
12 12.07 Ю 2 10 км 8/8 450 м
[Cu med, cong Ci sp]
+30.4 +22.3 62 +39 +44 очень
душно
1012.6 993.9
15 12.07 С 2 10 км 8/8 450 м
[Cu med, cong Ci sp]
+33.5 +23.6 56 +44 +48 опасность
перегрева
1009.8 991.2
18 12.07 С 2 10 км 6/4 450 м
[Cb cap Ci sp]
+33.5 +22.8 54 +44 +44 опасность
перегрева
1008.7 990.0 +35.5
21 12.07 З 2 10 км гроза без осадков 9/0 400 м
[Ac inh Cs]
+30.6 +25.0 72 +44 +44 опасность
перегрева
1010.9 992.2
00 13.07 штиль 0 10 км гроза без осадков 9/3 900 м
[Cb cap Ac As]
+23.0 +21.5 91 +31 +31 очень
душно
1012.2 993.3 28
06 13.07 З 2 10 км {гроза} 9/0
[Ac As]
+23.5 +22.0 91 +30 +30 очень
душно
1010.0 991.3 +23.0 28
09 13.07 З 2 10 км 5/3 150 м
[Cu med, cong]
+25.0 +22.8 88 +33 +37 очень
душно
1012.3 993.5
12 13.07 СЗ 3 10 км 6/6 450 м
[Cu med, cong Ci sp]
+29.5 +22.4 66 +39 +45 очень
душно
1012.3 993.4
15 13.07 С 3 10 км 8/4 450 м
[St Ci sp]
+32.2 +21.8 54 +41 +47 опасность
перегрева
1010.5 991.8
18 13.07 ЮВ 3 10 км гроза без осадков 9/4 450 м
[Cu Sc Ac As]
+30.6 +22.2 61 +40 +40 очень
душно
1010.7 991.3 +32.4
21 13.07 З 2 10 км гроза без осадков 8/3 900 м
[Cb cap Ac As]
+26.0 +24.6 92 +37 +37 очень
душно
1010.6 991.7
00 14.07 Ю 2 10 км {гроза, дождь} 9/0
[Ac As]
+26.5 +24.1 87 +37 +37 очень
душно
1012.0 993.2 1
06 14.07 З 3 10 км 8/6 180 м
[St Ac trans]
+24.0 +22.5 91 +31 +31 очень
душно
1011.5 992.7 +23.0 1
09 14.07 ЮЗ 4 10 км 8/6 400 м
[Sc Ac trans]
+25.0 +22.8 88 +33 +34 очень
душно
1012.9 994.0
12 14.07 ЮЗ 3 10 км 6/5 450 м
[Cu med, cong Ci sp]
+29.6 +22.4 65 +39 +47 очень
душно
1013.0 994.2
15 14.07 СЗ 3 10 км 6/6 450 м
[Cu med, cong Ci sp]
+32.2 +22.1 55 +41 +46 опасность
перегрева
1010.6 991.9
18 14.07 З 3 10 км 6/4 450 м
[Cu med, cong Ci sp]
+32.6 +22.3 55 +42 +43 опасность
перегрева
1009.4 990.7 +33.5
21 14.07 З 2 10 км ясно +29.0 +24.0 74 +40 +40 очень
душно
1011.2 992.3
03 15.07 З 2 10 км 4/4 400 м
[Sc]
+26.0 +23.9 88 +36 +36 очень
душно
1010.8 992.1
06 15.07 З 2 10 км 4/4 400 м
[Sc]
+26.0 +22.3 80 +34 +34 очень
душно
1010.3 991.7 +25.0
09 15.07 ЮЗ 3 10 км 8/5 450 м
[Cu med, cong Ac trans]
+28.0 +22.9 74 +37 +39 очень
душно
1011.9 993.2
12 15.07 ЮЗ 4 10 км 8/6 450 м
[Cu med, cong Ci sp]
+31.0 +22.7 61 +41 +45 опасность
перегрева
1011.7 993.0
15 15.07 З 3 10 км 8/6 450 м
[Cu med, cong Ci sp]
+33.6 +22.1 51 +42 +47 опасность
перегрева
1009.0 990.4
18 15.07 штиль 0 10 км гроза, ливневой дождь 10/4 450 м
[Cb cap As op]
+30.8 +22.5 61 +40 +40 очень
душно
1008.8 990.1 +34.2 0.7
21 15.07 штиль 0 10 км зарница {гроза, дождь} 9/3 900 м
[Cb calv Ac As]
+29.0 +24.8 78 +41 +41 опасность
перегрева
1009.0 990.4

 

Местоположение метеостанции Кедугу (Сенегал): широта 12.57 долгота -12.21 высота над уровнем моря 167 м.

В архиве по умолчанию представлена погода в Кедугу за последнюю неделю. Архивные данные за месяц целиком и за предыдущие месяцы, начиная с января 2011 года, Вы можете получить, выбрав интересующий диапазон дат из раскрывающегося списка и нажав кнопку "Ввод!".


*Определитесь, кто Вы:
робот инопланетянин человек

Внимание! Время в таблицах - всемирное. Для получения местного времени необходимо прибавить поправку, которая равна 0 ч.

Смотрите также архив погоды в соседних городах и на ближайших метеорологических станциях:

Погода в Кеньебе (Мали) (111 км)
Погода в Кундаре (Гвинея) (141 км)
Погода в Фатото (Гамбия) (195 км)
Погода в Тамбакунде (Сенегал) (208 км)
Погода в Каесе (Мали) (223 км)
Погода в Бассе (Гамбия) (230 км)
Погода в Бафате (Гвинея-Биссау) (271 км)
Погода в Киндиа (Гвинея) (289 км)
Погода в Джорджтауне (Гамбия) (297 км)
Погода в Колде (Сенегал) (300 км)

Пояснения к столбцам:

Ветер - указаны скорость ветра в м/с - средняя за 10 мин, порывы в срок и между сроками (в фигурных скобках) и направление, откуда дует ветер: С - северный, СВ - северо-восточный, В - восточный, ЮВ - юго-восточный, Ю - южный, ЮЗ - юго-западный, З - западный, СЗ - северо-западный.
Видимость - горизонтальная дальность видимости в метрах или километрах. При видимости от 1 до 10 км при отсутствии осадков обычно наблюдается дымка, при ухудшении видимости до 1 км и менее - туман. В сухую погоду видимость может ухудшаться дымом, пылью или мглою.
Явления - указаны атмосферные явления, наблюдавшиеся в срок или в последний час перед сроком; фигурными скобками обозначены явления, наблюдавшиеся между сроками (за 1-3 часа до срока); квадратными скобками обозначены град или гололедные отложения с указанием их диаметра в мм.
Облачность - указаны через наклонную черту общая и нижняя облачность в баллах и высота нижней границы облаков в метрах; квадратными скобками обозначены формы облаков: Ci - перистые, Cs - перисто-слоистые, Cc - перисто-кучевые, Ac - высококучевые, As - высокослоистые, Sc - слоисто-кучевые, Ns - слоисто-дождевые, Cu - кучевые, Cb - кучево-дождевые. Подробнее классификацию облаков см. в Атласе облаков (PDF).
T - Температура воздуха - температура, измеренная на высоте 2 м над землей.
Td - Температура точки росы - температура, при понижении до которой содержащийся в воздухе водяной пар достигнет насыщения.
f - Относительная влажность воздуха - влажноcть воздуха, измеренная на высоте 2 м над землей.
Te - Эффективная температура - температура, которую ощущает одетый по сезону человек в тени. Характеристика душности погоды. При расчете учитывается влияние влажности воздуха и скорости ветра на теплоощущения человека.
Tes - Эффективная температура на солнце - температура, которую ощущает человек, с поправкой на солнечный нагрев. Характеристика знойности погоды. Зависит от высоты солнца над горизонтом, облачности и скорости ветра. Ночью, в пасмурную погоду, а также при ветре 12 м/с и более поправка равна нулю.
P - Атмосферное давление - приведенное к уровню моря атмосферное давление.
Po - Атмосферное давление - измеренное на уровне метеостанции атмосферное давление.
Tmin - Минимальная температура - минимум температуры воздуха на высоте 2 м над землей.
Tmax - Максимальная температура - максимум температуры воздуха на высоте 2 м над землей.
R - Количество осадков - Количество выпавших осадков за период времени, мм. При наведении курсора мыши на число - период времени, за который выпало указанное количество осадков.
R24 - Количество осадков - Количество выпавших осадков за 24 часа, мм.
S - Снежный покров - Высота снежного покрова, см. При наведении курсора мыши на число - состояние снежного покрова и степень покрытия местности в баллах.